Weather History for South St. Paul, MN

Change the Weather History Date:

Saturday, April 5, 2014

  Actual Average (KMSP) Record (KMSP)
Temperature  
Mean Temperature 39 °F 42 °F  
Max Temperature 51 °F 52 °F 80 °F (1991)
Min Temperature 27 °F 32 °F 12 °F (1979)
Degree Days  
Heating Degree Days 26 23  
Month to date heating degree days 119  
Since 1 July heating degree days 6907  
Cooling Degree Days 0 0  
Month to date cooling degree days 0  
Year to date cooling degree days 0  
Moisture  
Dew Point 31 °F    
Average Humidity 72    
Maximum Humidity 92    
Minimum Humidity 56    
Precipitation  
Precipitation 0.00 in 0.07 in 0.91 in (1999)
Month to date precipitation 0.36  
Year to date precipitation 3.92  
Snow  
Snow 0.00 in 0.10 in 1.50 in (1964)
Month to date snowfall 0.6  
Since 1 July snowfall 52.6  
Snow Depth -    
Sea Level Pressure  
Sea Level Pressure 30.05 in    
Wind  
Wind Speed 5 mph (SSW)    
Max Wind Speed 14 mph    
Max Gust Speed 20 mph    
Visibility 10 miles    
Events      
T = Trace of Precipitation, MM = Missing Value Source: NWS Daily Summary

Daily Weather History Graph

Daily Weather History Graph

Search for Another Location

Airport:

Trip Planner

Search our weather history database for the weather conditions in past years. The results will help you decide how hot, cold, wet, or windy it might be!

Date:

Astronomy

Apr. 05, 2014 Rise Set
Actual Time 6:45 AM CDT 7:44 PM CDT
Civil Twilight 6:15 AM CDT 8:14 PM CDT
Nautical Twilight 5:40 AM CDT 8:50 PM CDT
Astronomical Twilight 5:02 AM CDT 9:28 PM CDT
Moon 10:44 AM CDT (4/5) 1:04 AM CDT (4/5)
Length of Visible Light 13h 59m
Length of Day
12h 59m
Waxing Crescent, 34% of the Moon is Illuminated
Apr 5
Waxing Crescent
Apr 7
First Quarter
Apr 15
Full
Apr 22
Last Quarter
Apr 29
New

Hourly Weather History & Observations

Time (CDT) Temp. Windchill Dew Point Humidity Pressure Visibility Wind Dir Wind Speed Gust Speed Precip Events Conditions
12:12 AM 35.1 °F 31.0 °F 28.4 °F 77% 30.04 in 10.0 mi West 4.6 mph - N/A   Clear
12:32 AM 34.7 °F 31.8 °F 28.4 °F 78% 30.05 in 10.0 mi West 3.5 mph - N/A   Clear
12:52 AM 33.8 °F 30.8 °F 28.4 °F 81% 30.05 in 10.0 mi West 3.5 mph - N/A   Clear
1:12 AM 33.3 °F 28.9 °F 28.0 °F 81% 30.06 in 10.0 mi West 4.6 mph - N/A   Clear
1:32 AM 32.9 °F 28.5 °F 28.2 °F 83% 30.06 in 10.0 mi West 4.6 mph - N/A   Clear
1:52 AM 32.9 °F 29.8 °F 28.2 °F 83% 30.07 in 10.0 mi West 3.5 mph - N/A   Clear
2:12 AM 32.2 °F 28.9 °F 28.0 °F 85% 30.07 in 10.0 mi West 3.5 mph - N/A   Clear
2:32 AM 32.0 °F - 27.7 °F 84% 30.07 in 10.0 mi Calm Calm - N/A   Clear
2:52 AM 32.0 °F 28.7 °F 27.7 °F 84% 30.07 in 10.0 mi West 3.5 mph - N/A   Clear
3:12 AM 31.8 °F 27.3 °F 27.5 °F 84% 30.07 in 10.0 mi West 4.6 mph - N/A   Clear
3:32 AM 31.6 °F 27.0 °F 27.3 °F 84% 30.07 in 10.0 mi West 4.6 mph - N/A   Clear
3:52 AM 31.6 °F 28.3 °F 27.0 °F 83% 30.08 in 10.0 mi West 3.5 mph - N/A   Clear
4:12 AM 31.1 °F 27.7 °F 26.6 °F 83% 30.08 in 10.0 mi West 3.5 mph - N/A   Clear
4:32 AM 30.9 °F - 26.6 °F 84% 30.08 in 10.0 mi Calm Calm - N/A   Clear
4:52 AM 30.7 °F - 27.0 °F 86% 30.08 in 10.0 mi Calm Calm - N/A   Clear
5:12 AM 30.2 °F - 26.6 °F 86% 30.08 in 10.0 mi Calm Calm - N/A   Clear
5:32 AM 29.5 °F - 26.4 °F 88% 30.08 in 10.0 mi Calm Calm - N/A   Clear
5:52 AM 28.8 °F - 26.1 °F 90% 30.09 in 7.0 mi Calm Calm - N/A   Clear
6:11 AM 28.9 °F - 26.6 °F 91% 30.09 in 7.0 mi Calm Calm - N/A   Clear
6:32 AM 27.9 °F - 25.7 °F 92% 30.09 in 5.0 mi Calm Calm - N/A   Clear
6:52 AM 28.0 °F - 26.1 °F 92% 30.10 in 4.0 mi Calm Calm - N/A   Clear
7:12 AM 28.0 °F - 26.1 °F 92% 30.10 in 4.0 mi Calm Calm - N/A   Clear
7:32 AM 28.2 °F - 26.2 °F 92% 30.11 in 5.0 mi Calm Calm - N/A   Clear
7:52 AM 28.4 °F - 26.2 °F 92% 30.11 in 4.0 mi Calm Calm - N/A   Clear
8:12 AM 30.2 °F - 28.0 °F 92% 30.11 in 7.0 mi Calm Calm - N/A   Clear
8:32 AM 31.6 °F - 28.2 °F 87% 30.11 in 10.0 mi Calm Calm - N/A   Clear
8:52 AM 32.4 °F - 28.4 °F 85% 30.12 in 10.0 mi Calm Calm - N/A   Clear
9:12 AM 34.0 °F - 28.6 °F 81% 30.12 in 10.0 mi Calm Calm - N/A   Clear
9:32 AM 35.8 °F - 28.9 °F 76% 30.12 in 10.0 mi Calm Calm - N/A   Clear
9:52 AM 37.2 °F 31.9 °F 28.0 °F 69% 30.12 in 10.0 mi SW 6.9 mph - N/A   Clear
10:12 AM 38.3 °F 33.2 °F 28.0 °F 67% 30.12 in 10.0 mi SW 6.9 mph - N/A   Clear
10:52 AM 39.4 °F 32.7 °F 28.6 °F 65% 30.12 in 10.0 mi SSW 10.4 mph - N/A   Clear
11:12 AM 40.1 °F 34.1 °F 28.4 °F 63% 30.12 in 10.0 mi SW 9.2 mph - N/A   Clear
11:32 AM 40.8 °F 35.0 °F 28.8 °F 62% 30.11 in 10.0 mi South 9.2 mph - N/A   Clear
11:52 AM 41.5 °F 35.4 °F 28.8 °F 60% 30.11 in 10.0 mi SW 10.4 mph - N/A   Clear
12:12 PM 42.3 °F 35.9 °F 28.9 °F 59% 30.11 in 10.0 mi SSW 11.5 mph 16.1 mph N/A   Clear
12:31 PM 43.0 °F 37.2 °F 29.3 °F 59% 30.10 in 10.0 mi SSW 10.4 mph - N/A   Clear
12:52 PM 43.0 °F 37.2 °F 29.3 °F 59% 30.10 in 10.0 mi SSW 10.4 mph - N/A   Clear
1:12 PM 43.9 °F 38.8 °F 30.0 °F 58% 30.10 in 10.0 mi South 9.2 mph - N/A   Clear
1:32 PM 44.4 °F 39.5 °F 30.2 °F 57% 30.09 in 10.0 mi SSW 9.2 mph - N/A   Clear
1:52 PM 45.3 °F 40.1 °F 31.3 °F 58% 30.08 in 10.0 mi South 10.4 mph 17.3 mph N/A   Clear
2:12 PM 45.9 °F 40.4 °F 31.8 °F 58% 30.07 in 10.0 mi SSW 11.5 mph - N/A   Clear
2:32 PM 46.8 °F - 32.2 °F 57% 30.07 in 10.0 mi South 9.2 mph 16.1 mph N/A   Clear
2:52 PM 47.5 °F - 32.7 °F 57% 30.06 in 10.0 mi South 13.8 mph 19.6 mph N/A   Clear
3:12 PM 48.4 °F - 33.3 °F 56% 30.05 in 10.0 mi South 12.7 mph - N/A   Clear
3:32 PM 48.4 °F - 33.1 °F 56% 30.03 in 10.0 mi South 13.8 mph 18.4 mph N/A   Clear
3:52 PM 49.6 °F - 34.9 °F 57% 30.03 in 10.0 mi SSE 9.2 mph 17.3 mph N/A   Clear
4:12 PM 49.5 °F - 34.9 °F 57% 30.02 in 10.0 mi South 10.4 mph 17.3 mph N/A   Clear
4:32 PM 50.4 °F - 35.2 °F 56% 30.01 in 10.0 mi SSE 8.1 mph 17.3 mph N/A   Clear
4:52 PM 50.7 °F - 35.6 °F 56% 30.01 in 10.0 mi SSE 10.4 mph - N/A   Clear
5:12 PM 50.9 °F - 36.0 °F 57% 30.00 in 10.0 mi SSE 8.1 mph - N/A   Clear
5:32 PM 50.9 °F - 36.3 °F 57% 30.00 in 10.0 mi SSE 9.2 mph - N/A   Clear
5:52 PM 51.1 °F - 36.3 °F 57% 30.00 in 10.0 mi SSE 8.1 mph - N/A   Clear
6:12 PM 50.2 °F - 36.7 °F 60% 30.00 in 10.0 mi SSE 9.2 mph - N/A   Scattered Clouds
6:32 PM 50.0 °F - 36.9 °F 61% 30.00 in 10.0 mi SSE 9.2 mph - N/A   Scattered Clouds
6:52 PM 50.0 °F - 37.0 °F 61% 30.00 in 10.0 mi SSE 4.6 mph - N/A   Scattered Clouds
7:12 PM 49.5 °F - 36.9 °F 62% 29.99 in 10.0 mi SSE 8.1 mph - N/A   Mostly Cloudy
7:32 PM 48.7 °F - 37.0 °F 64% 29.99 in 10.0 mi SSE 6.9 mph - N/A   Mostly Cloudy
7:52 PM 48.2 °F - 36.7 °F 64% 29.98 in 10.0 mi SSE 4.6 mph - N/A   Overcast
8:12 PM 47.7 °F - 36.9 °F 66% 29.98 in 10.0 mi SE 5.8 mph - N/A   Scattered Clouds
8:32 PM 46.4 °F 42.9 °F 36.5 °F 68% 29.98 in 10.0 mi SSE 6.9 mph - N/A   Scattered Clouds
8:52 PM 46.4 °F 43.5 °F 36.1 °F 67% 29.98 in 10.0 mi SSE 5.8 mph - N/A   Scattered Clouds
9:12 PM 45.9 °F 42.3 °F 36.0 °F 68% 29.99 in 10.0 mi SSE 6.9 mph - N/A   Scattered Clouds
9:32 PM 44.1 °F 42.5 °F 35.8 °F 73% 30.00 in 10.0 mi South 3.5 mph - N/A   Clear
9:52 PM 44.4 °F - 35.8 °F 72% 30.00 in 10.0 mi Calm Calm - N/A   Clear
10:12 PM 43.7 °F 42.1 °F 35.6 °F 73% 29.99 in 10.0 mi South 3.5 mph - N/A   Clear
10:32 PM 43.5 °F 40.1 °F 35.2 °F 73% 29.99 in 10.0 mi SSE 5.8 mph - N/A   Clear
10:52 PM 42.8 °F 41.1 °F 34.9 °F 74% 29.98 in 10.0 mi SSE 3.5 mph - N/A   Clear
11:12 PM 42.3 °F 40.5 °F 34.7 °F 75% 29.97 in 10.0 mi SSE 3.5 mph - N/A   Clear
11:32 PM 41.9 °F 40.0 °F 34.2 °F 74% 29.97 in 10.0 mi South 3.5 mph - N/A   Clear
11:52 PM 42.3 °F - 33.8 °F 72% 29.97 in 10.0 mi Calm Calm - N/A   Clear